Tracking 19909 objects as of 22-Oct-2019
HD Live streaming from Space Station
objects crossing your sky now

METEOR 2-17 DEB

Track METEOR 2-17 DEB now!
10-day predictions


NORAD ID: 29302
Int'l Code: 1988-005R
Perigee: 892.9 km
Apogee: 921.5 km
Inclination: 82.5 °
Period: 103.0 minutes
Semi major axis: 7278 km
RCS: 0.0088 m2 (small)
Launch date: January 30, 1988
Source: Commonwealth of Independent States (former USSR) (CIS)
Launch site: PLESETSK MISSILE AND SPACE COMPLEX (PKMTR)

Note: This is SATELLITE DEBRIS
aabbcc
Your satellite tracking list
Your tracking list is empty




NASA's NSSDC Master Catalog

Two Line Element Set (TLE):
1 29302U 88005R   19292.04704281  .00000846  00000-0  58254-3 0  9991
2 29302  82.5463  44.7422 0019667 122.4430 237.8643 13.98193073685426
Source of the keplerian elements: AFSPC